Hourly Data Report for July 19, 2016

OTTAWA INTL A
ONTARIO

45°19'00.000" N
75°40'00.000" W
114.90 m
6106001
71628
YOW

Download Data

Hourly Data (July 2016)
Hourly Data Report for July 19, 2016
TIME
LST
Temp Definition
°C
Dew Point Definition
°C
Rel Hum Definition
%
Precip. Amount Definition
mm

Wind Dir Definition
10's deg

Wind Spd Definition
km/h
Visibility Definition
km
Stn Press Definition
kPa
Hmdx Definition


Wind Chill Definition


Weather Definition


00:00 18.2 9.1 55   34 23 24.1 100.39     LegendNANA
01:00 17.6 9.3 58   33 20 24.1 100.44     Mostly Cloudy
02:00 16.6 9.1 61   33 16 24.1 100.49     LegendNANA
03:00 13.9 9.2 73   32 8 24.1 100.50     LegendNANA
04:00 12.1 9.0 81   28 7 24.1 100.51     Mainly Clear
05:00 11.1 9.0 87   26 10 24.1 100.57     LegendNANA
06:00 14.5 10.6 77   25 10 24.1 100.63     LegendNANA
07:00 16.7 10.8 68   24 9 24.1 100.66     Clear
08:00 18.5 11.4 63   28 16 24.1 100.71     LegendNANA
09:00 19.4 10.8 57   29 13 24.1 100.72     LegendNANA
10:00 20.8 11.0 53   30 17 24.1 100.73     Mainly Clear
11:00 21.6 10.3 48   32 21 24.1 100.74     LegendNANA
12:00 20.9 9.6 48   30 23 24.1 100.73     LegendNANA
13:00 20.9 10.2 50   30 27 24.1 100.73     Mostly Cloudy
14:00 22.3 10.3 46   31 17 24.1 100.70     LegendNANA
15:00 22.7 9.3 42   29 24 24.1 100.69     LegendNANA
16:00 22.1 9.8 45   29 22 24.1 100.69     Mostly Cloudy
17:00 22.9 9.1 41   29 22 24.1 100.68     LegendNANA
18:00 22.4 9.7 44   29 15 24.1 100.70     LegendNANA
19:00 21.0 9.7 48   28 14 24.1 100.70     Mainly Clear
20:00 19.2 9.8 54   29 10 24.1 100.72     LegendNANA
21:00 16.6 10.5 67   30 5 24.1 100.78     LegendNANA
22:00 15.3 11.1 76   27 9 24.1 100.81     Clear
23:00 13.1 10.5 84   26 4 24.1 100.83     LegendNANA

Notes on Data Quality.

Legend

  • E = Estimated
  • M = Missing
  • NA = Not Available*
  • [empty] = Indicates an unobserved value
Date modified: